Regional Weather Roundup
Issued by NWS State College, PA

Home | Current Version | Previous Version | Text Only | Print | Product List | Glossary On
Versions: 1 2 3 4 5 6 7 8 9 10 11 12 13 14 15 16 17 18 19 20 21 22 23 24 25 26 27 28 29 30 31 32 33 34 35 36 37 38 39 40 41 42 43 44 45 46 47 48 49 50
834
ASUS41 KCTP 232110
RWRCTP

REGIONAL WEATHER ROUNDUP
NATIONAL WEATHER SERVICE STATE COLLEGE PA
500 PM EDT THU MAR 23 2017

Note: "fair" indicates few or no clouds below 12,000 feet with no
significant weather and/or obstructions to visibility.

* = STATION THAT DOES NOT REPORT PRECIPITATION /E.G. RAIN...SNOW...ETC/
    THUNDER OR FOG.

PAZ002>004-007>009-013>016-020>023-029>032-232200-
WESTERN PENNSYLVANIA

CITY           SKY/WX    TMP DP  RH WIND       PRES   REMARKS
ERIE           SUNNY     37  22  54 NE10      30.41F
MEADVILLE      SUNNY     45   5  19 SW9       30.38F
FRANKLIN*      SUNNY     45   5  19 SE5       30.40F
NEW CASTLE     FAIR      49   6  17 S7        30.40F
BEAVER COUNTY  SUNNY     48   7  18 SE6       30.39F
BUTLER*        SUNNY     46   9  21 S8        30.41F
PITTSBURGH INT MOSUNNY   48  -3  12 S7        30.39F
PITTSBURGH     SUNNY     49  -1  12 VRB3      30.38F
INDIANA*       SUNNY     48   1  14 SW6       30.42F
LATROBE        SUNNY     48   0  13 CALM      30.40F
WASHINGTON CO* SUNNY     50   7  17 E3        30.40F
$$

PAZ004>006-010>012-017>019-024>028-033>037-041-042-045-046-049>053-232200-
CENTRAL PENNSYLVANIA

CITY           SKY/WX    TMP DP  RH WIND       PRES   REMARKS
BRADFORD       SUNNY     41   3  20 VRB7      30.36F
DUBOIS         SUNNY     44   0  16 VRB6      30.38F
CLEARFIELD       N/A    N/A N/A N/A MISG      30.41F
JOHNSTOWN      SUNNY     43   5  20 S9        30.37F
ALTOONA        SUNNY     44   6  21 VRB5      30.44F
STATE COLLEGE  SUNNY     43   7  22 S9        30.45F
WILLIAMSPORT   SUNNY     44   6  21 VRB3      30.48F
SELINSGROVE    SUNNY     41  14  33 S3        30.50F
FT INDIANTOWN  SUNNY     44   3  18 VRB3      30.50F
CAPITAL CITY   SUNNY     45   4  18 SW6       30.51F
HARRISBURG     MOSUNNY   45   6  20 W7        30.51F
YORK           SUNNY     43  11  27 VRB3      30.51F
$$

PAZ038>040-043-044-047-048-054-055-060>062-067>071-232200-
EASTERN PENNSYLVANIA

CITY           SKY/WX    TMP DP  RH WIND       PRES   REMARKS
SCRANTON       SUNNY     37   6  27 CALM      30.48F
MOUNT POCONO   SUNNY     33   0  24 N9        30.42F
ALLENTOWN      SUNNY     44   5  20 W9        30.50F
QUAKERTOWN*    CLEAR     41   9  26 W5        30.51F
READING        SUNNY     43  10  26 VRB5      30.51F
LANCASTER      SUNNY     43  10  26 VRB6      30.52F
COATESVILLE    CLEAR     41   9  26 NW8       30.52F
POTTSTOWN      SUNNY     43   6  21 W8        30.53F
BLUE BELL      SUNNY     41  10  28 CALM      30.51F
DOYLESTOWN     SUNNY     35   7  31 NW7       30.50F
WILLOW GROVE   NOT AVBL
NORTH PHILA    SUNNY     45   5  19 W10       30.54F
PHILADELPHIA   MOSUNNY   45   7  21 SW12      30.53F
$$




USA.gov is the U.S. government's official web portal to all federal, state and local government web resources and services.